This is the latest recevied weather packets stored in our database for station/object DG4DAA-13. If no packets are shown the sender has not sent any weather packets the latest 10 day(s).
| Time | Temp. | Humidity | Pressure | Rain* | Wind** | Luminosity | Snow |
|---|---|---|---|---|---|---|---|
| 1778121496 | 7.78° C | 94% | 1014 hPa | 0 mm | - | - | - |
| 1778119750 | 7.78° C | 94% | 1013.9 hPa | 0.25 mm | - | - | - |
| 1778119696 | 7.78° C | 94% | 1013.9 hPa | 0.25 mm | - | - | - |
| 1778117896 | 7.78° C | 94% | 1013.7 hPa | 0.51 mm | - | - | - |
| 1778116096 | 7.78° C | 94% | 1013.5 hPa | 0.51 mm | - | - | - |
| 1778114296 | 7.78° C | 94% | 1013.4 hPa | 0.51 mm | - | - | - |
| 1778112496 | 7.78° C | 94% | 1013.4 hPa | 0.51 mm | - | - | - |
| 1778110696 | 7.78° C | 94% | 1013.2 hPa | 0.25 mm | - | - | - |
| 1778108896 | 7.78° C | 94% | 1013.2 hPa | 0 mm | - | - | - |
| 1778107096 | 7.78° C | 94% | 1013.1 hPa | 0 mm | - | - | - |
| 1778105296 | 7.78° C | 94% | 1012.8 hPa | 0 mm | - | - | - |
| 1778103496 | 7.78° C | 94% | 1012.8 hPa | 0 mm | - | - | - |
| 1778101709 | 7.78° C | 94% | 1012.7 hPa | 0.25 mm | - | - | - |
| 1778101698 | 7.78° C | 94% | 1012.7 hPa | 0.25 mm | - | - | - |
| 1778099896 | 7.78° C | 94% | 1012.5 hPa | 0.25 mm | - | - | - |
| 1778098096 | 7.78° C | 94% | 1012.2 hPa | 0 mm | - | - | - |
| 1778096296 | 7.78° C | 94% | 1012.1 hPa | 0 mm | - | - | - |
| 1778094497 | 7.78° C | 94% | 1011.7 hPa | 0 mm | - | - | - |
| 1778092697 | 7.78° C | 94% | 1011.4 hPa | 0.25 mm | - | - | - |
| 1778090917 | 8.33° C | 94% | 1011.1 hPa | 0.25 mm | - | - | - |
| 1778090897 | 8.33° C | 94% | 1011.1 hPa | 0.25 mm | - | - | - |
| 1778089097 | 8.33° C | 94% | 1010.8 hPa | 0.51 mm | - | - | - |
| 1778087297 | 8.33° C | 94% | 1010.6 hPa | 1.02 mm | - | - | - |
| 1778085503 | 8.89° C | 94% | 1010.4 hPa | 1.02 mm | - | - | - |
| 1778085497 | 8.89° C | 94% | 1010.4 hPa | 1.02 mm | - | - | - |
* Rain latest hour (hover to see other rain measurements)
** Current wind speed in m/s (hover to see current wind gust speed)